#timestamp,LO_Frequency,Hit,StdDev 
1589122815.1,286046996.9,N
1589122816.0,286046996.9,N
1589122835.8,286046997.2,N
1589122855.7,286046996.2,N
1589122875.5,286046993.7,N
1589122895.4,286046993.4,N
1589122915.2,286046994.5,N
1589122935.0,286046992.1,N
1589122935.9,286046992.1,N
1589122955.8,286046993.8,N
1589122975.6,286046994.2,N
1589122995.4,286046996.2,N
1589123015.3,286046997.7,N
1589123035.1,286046997.4,N
1589123055.9,286046995.4,N
1589123075.7,286046995.8,N
1589123095.5,286046997.2,N
1589123115.4,286046995.4,N
1589123135.2,286046996.9,N
1589123155.1,286046997.6,N
1589123156.0,286046997.6,N
1589123175.8,286046997.5,N
1589123195.6,286046997.7,N
1589123215.5,286046996.4,N
1589123265.3,286046996.3,E
1589123275.3,286046997.6,N
1589123295.1,286046996.7,P
1589123296.0,286046996.7,P
1589123315.8,286046996.9,Y
1589123335.7,286047000.6,P
1589123355.5,286047000.6,N
1589123375.4,286047000.9,N
1589123395.2,286046998.6,N
1589123415.0,286046999.0,N
1589123415.9,286046999.0,N
1589123435.8,286046998.2,N
1589123455.6,286047000.3,N
1589123475.4,286047001.7,N
1589123495.3,286047002.0,N
1589123515.1,286047000.2,N
1589123535.9,286047002.7,N
1589123555.7,286047000.9,N
1589123575.5,286046999.8,N
1589123595.4,286046998.3,N
1589123615.2,286046998.2,N
1589123635.0,286046998.7,N
1589123636.0,286046998.7,N
1589123655.8,286046999.0,N
1589123675.6,286046997.1,N
1589123695.5,286046996.7,N
1589123715.3,286046999.2,N
1589123735.1,286046998.1,N
1589123755.9,286046999.1,N
1589123775.7,286046999.1,N
1589123795.5,286046997.4,N
1589123815.4,286046997.2,N
1589123835.2,286046994.9,Y
1589123855.1,286046999.4,P
1589123856.0,286046999.4,P
1589123875.8,286047001.1,P
1589123895.6,286046998.5,N
1589123915.5,286046998.2,N
1589123935.3,286046998.4,N
1589123955.2,286047000.8,N
1589123975.9,286046998.1,N
1589123995.7,286046999.4,N
1589124015.6,286046998.8,N
1589124035.4,286046998.5,N
1589124055.2,286046999.0,N
1589124075.1,286046999.2,N
1589124076.0,286046999.2,N
1589124095.8,286047000.8,N
1589124115.7,286047000.2,N
1589124135.5,286047000.3,N
1589124155.3,286047002.8,Y
1589124175.2,286047004.2,P
1589124195.0,286047003.4,N
1589124195.9,286047003.4,N
1589124215.8,286047003.1,N
1589124235.6,286047006.0,Y
1589124255.4,286047002.2,P
1589124275.3,286047002.6,P
1589124295.1,286047000.4,N
1589124315.8,286047000.9,N
1589124335.7,286047002.0,N
1589124355.5,286047001.6,N
1589124375.4,286047004.4,Y
1589124395.2,286047002.2,P
1589124415.0,286047002.3,P
1589124415.9,286047002.3,P
1589124435.8,286047002.3,Y
1589124455.6,286046998.6,P
1589124475.5,286046998.4,N
1589124495.3,286046998.6,N
1589124515.1,286046999.4,N
1589124535.9,286046999.0,N
1589124555.7,286046999.6,N
1589124575.5,286046999.0,N
1589124595.4,286046999.3,N
1589124615.2,286046997.7,N
1589124635.1,286046995.5,Y
1589124636.0,286046995.5,P
1589124655.8,286046997.2,N
1589124675.6,286046996.8,N
1589124695.5,286046999.4,N
1589124715.3,286046998.6,N
1589124735.2,286046998.6,N
1589124755.9,286046999.4,N
1589124775.7,286046999.4,N
1589124795.6,286046998.7,N
1589124815.4,286046996.8,N
1589124835.2,286046996.6,N
1589124855.1,286046996.6,N
1589124856.0,286046996.6,N
1589124875.8,286046996.9,N
1589124895.7,286046999.4,N
1589124915.5,286046999.5,N
1589124935.3,286046997.8,N
1589124955.2,286046995.6,Y
1589124975.0,286046997.0,P
1589124975.9,286046997.0,P
1589124995.8,286046996.7,P
1589125015.6,286046996.7,Y
1589125035.4,286047000.4,P
1589125055.3,286046999.7,N
1589125075.1,286047002.1,N
1589125095.8,286047002.5,N
1589125115.7,286047001.6,N
1589125135.5,286047001.8,N
1589125155.4,286047004.0,N
1589125175.2,286047001.3,N
1589125195.0,286047001.8,N
1589125195.9,286047001.8,N
1589125215.8,286047002.3,N
1589125235.6,286047002.7,N
1589125255.4,286047001.7,N
1589125275.3,286047004.4,N
1589125295.1,286047005.1,Y
1589125315.9,286047003.7,P
1589125335.7,286047002.7,N
1589125355.5,286047000.0,N
1589125375.4,286047000.5,N
1589125395.2,286047000.2,N
1589125415.1,286047004.2,Y
1589125416.0,286047004.2,P
1589125435.8,286047004.4,P
1589125455.6,286047001.4,N
1589125475.5,286047001.8,N
1589125525.3,286047002.4,E
1589125535.3,286047000.3,N
1589125555.1,286047000.5,P
1589125575.8,286047000.5,P
1589125595.7,286046998.1,Y
1589125615.5,286046998.2,P
1589125635.4,286047000.5,N
1589125655.2,286047001.2,N
1589125675.0,286047000.2,N
1589125675.9,286047000.2,N
1589125695.8,286046999.9,N
1589125715.6,286046999.9,N
1589125735.4,286047000.9,N
1589125755.3,286047002.4,N
1589125775.1,286047002.0,N
1589125795.9,286047001.8,N
1589125815.7,286047001.6,N
1589125835.5,286047002.7,N
1589125855.4,286047001.2,N
1589125875.2,286047001.0,N
1589125895.0,286046999.3,N
1589125896.0,286046999.3,N
1589125915.8,286046999.0,N
1589125935.6,286046997.0,N
1589125955.5,286046997.0,N
1589125975.3,286046999.2,N
1589125995.1,286047001.1,N
1589126015.9,286047002.0,N
1589126035.7,286047002.7,N
1589126055.6,286047000.6,N
1589126075.4,286046998.3,N
1589126095.2,286046999.1,N
1589126115.1,286046996.9,N
1589126116.0,286046996.9,N
1589126135.8,286046999.3,N
1589126155.6,286047001.1,N
1589126175.5,286047002.2,N
1589126195.3,286047000.3,N
1589126215.2,286047002.7,N
1589126235.9,286047002.6,N
1589126285.7,286047006.0,E
1589126295.7,286047002.1,N
1589126315.5,286047001.1,P
1589126335.3,286046998.3,P
1589126355.2,286047001.1,N
1589126375.0,286046998.4,N
1589126375.9,286046998.4,N
1589126395.8,286046998.1,N
